METEOR-M2 4

Last updated on Sat Jun 14 2025 00:02:22 GMT+0000 (Coordinated Universal Time)

1 59051U 24039A 25164.58354522 .00000026 00000+0 31163-4 0 9995 2 59051 98.6495 124.6463 0007566 148.7663 211.3966 14.22368332 66866
UTC large
Height (km)
Speed (km/s)
/
Latitude / Longitude
Inclination (degrees)
Orbital Period (minutes)
Azimuth
Elevation
Range (km)
Doppler Factor

Next 0 passes for location: London (51.5072 / 0.1276)

Sorry there are no passes over London.